Orbital Elements at Epoch 2459200.5 (2020-Dec-17.0) TDB
Reference: JPL 18 (heliocentric ecliptic J2000)
Element | Value | Uncertainty (1-sigma) | Units |
e | .0722709654540664 | 4.8365e-08 | |
a | 3.097070105346008 | 2.2178e-08 | au |
q | 2.873241858753725 | 1.5095e-07 | au |
i | 6.594489955599946 | 5.52e-06 | deg |
node | 36.22064649675286 | 3.7796e-05 | deg |
peri | 4.268147556722644 | 5.4282e-05 | deg |
M | 20.38526138928054 | 3.6091e-05 | deg |
tp | 2459087.770192626674 (2020-Aug-26.27019263) | 0.00019987 | TDB |
period | 1990.787848113508 5.45 | 2.1384e-05 5.855e-08 | d yr |
n | .1808329302095851 | 1.9424e-09 | deg/d |
Q | 3.320898351938291 | 2.3781e-08 | au |
|
| | Orbit Determination Parameters
Additional Information
|